Home > Products > Valid Products > MTR

000
SAUS43 KABR 231005 COR
MTR8D3
METAR K8D3 230956Z AUTO 34003KT 12/04 A3019 RMK AO1 SLP213 T01170044





000
SAUS43 KABR 230905 COR
MTR8D3
METAR K8D3 230856Z AUTO 29003KT 12/05 A3018 RMK AO1 SLP209 T01170050
53008





000
SAUS43 KABR 230905 COR
MTR8D3
METAR K8D3 230856Z AUTO 29003KT 12/05 A3018 RMK AO1 SLP209 T01170050
53008





000
SAUS43 KABR 230805 COR
MTR8D3
METAR K8D3 230756Z AUTO 28015G20KT 13/04 A3016 RMK AO1 SLP202
T01330044





000
SAUS43 KABR 230704 COR
MTR8D3
METAR K8D3 230656Z AUTO 26015G20KT 14/06 A3016 RMK AO1 SLP202
T01390061





000
SAUS43 KABR 230703 COR
MTR8D3
METAR K8D3 230656Z AUTO 26015G20KT 14/06 A3016 RMK AO1 SLP202
T01390061





000
SAUS43 KABR 230703 COR
MTR8D3
METAR K8D3 230656Z AUTO 26015G20KT 14/06 A3016 RMK AO1 SLP202
T01390061





000
SAUS43 KABR 230604 COR
MTR8D3
METAR K8D3 230556Z AUTO 26012G19KT 14/07 A3015 RMK AO1 SLP200
T01390067 10233 20133 402440044 51008





000
SAUS43 KABR 230603 COR
MTR8D3
METAR K8D3 230556Z AUTO 26012G19KT 14/07 A3015 RMK AO1 SLP200
T01390067 10233 20133 402440044 51008





000
SAUS43 KABR 230504 COR
MTR8D3
METAR K8D3 230456Z AUTO 26011KT 16/08 A3015 RMK AO1 SLP198 T01560078





000
SAUS43 KABR 230504 COR
MTR8D3
METAR K8D3 230456Z AUTO 26011KT 16/08 A3015 RMK AO1 SLP198 T01560078





000
SAUS43 KABR 230503 COR
MTR8D3
METAR K8D3 230456Z AUTO 26011KT 16/08 A3015 RMK AO1 SLP198 T01560078





000
SAUS43 KABR 230503 COR
MTR8D3
METAR K8D3 230456Z AUTO 26011KT 16/08 A3015 RMK AO1 SLP198 T01560078





000
SAUS43 KABR 230402
MTR8D3
METAR K8D3 230356Z AUTO 23004KT 16/04 A3014 RMK AO1 SLP195 T01560044





000
SAUS43 KABR 230302
MTR8D3
METAR K8D3 230256Z AUTO 14005KT 16/03 A3013 RMK AO1 SLP193 T01610028
53004





000
SAUS43 KABR 230302
MTR8D3
METAR K8D3 230256Z AUTO 14005KT 16/03 A3013 RMK AO1 SLP193 T01610028
53004





000
SAUS43 KABR 230202
MTR8D3
METAR K8D3 230156Z AUTO 13006KT 17/03 A3012 RMK AO1 SLP190 T01720033





000
SAUS43 KABR 230102
MTR8D3
METAR K8D3 230056Z AUTO 11006KT 21/02 A3011 RMK AO1 SLP187 T02060017





000
SAUS43 KABR 230102
MTR8D3
METAR K8D3 230056Z AUTO 11006KT 21/02 A3011 RMK AO1 SLP187 T02060017





000
SAUS43 KABR 230002
MTR8D3
METAR K8D3 222356Z AUTO 00000KT 23/M03 A3012 RMK AO1 SLP192
T02331028 10244 20217 56011





000
SAUS43 KABR 230002
MTR8D3
METAR K8D3 222356Z AUTO 00000KT 23/M03 A3012 RMK AO1 SLP192
T02331028 10244 20217 56011





000
SAUS43 KABR 222304 COR
MTR8D3
METAR K8D3 222256Z AUTO VRB03KT 23/M04 A3012 RMK AO1 SLP198
T02331039





000
SAUS43 KABR 222303 COR
MTR8D3
METAR K8D3 222256Z AUTO VRB03KT 23/M04 A3012 RMK AO1 SLP198
T02331039





000
SAUS43 KABR 222202
MTR8D3
METAR K8D3 222156Z AUTO 17006KT 24/M04 A3013 RMK AO1 SLP199
T02441044





000
SAUS43 KABR 222202
MTR8D3
METAR K8D3 222156Z AUTO 17006KT 24/M04 A3013 RMK AO1 SLP199
T02441044





000
SAUS43 KABR 222102
MTR8D3
METAR K8D3 222056Z AUTO 00000KT 23/M03 A3015 RMK AO1 SLP205
T02331028 58015





000
SAUS43 KABR 222102
MTR8D3
METAR K8D3 222056Z AUTO 00000KT 23/M03 A3015 RMK AO1 SLP205
T02331028 58015





000
SAUS43 KABR 222004 COR
MTR8D3
METAR K8D3 221956Z AUTO 12006KT 23/M01 A3017 RMK AO1 SLP211
T02331006





000
SAUS43 KABR 222003 COR
MTR8D3
METAR K8D3 221956Z AUTO 12006KT 23/M01 A3017 RMK AO1 SLP211
T02331006





000
SAUS43 KABR 222003 COR
MTR8D3
METAR K8D3 221956Z AUTO 12006KT 23/M01 A3017 RMK AO1 SLP211
T02331006





000
SAUS43 KABR 222002
MTR8D3
METAR K8D3 221956Z AUTO 12006KT 23/M01 A3017 RMK AO1 SLP211
T02331006





000
SAUS43 KABR 221902
MTR8D3
METAR K8D3 221856Z AUTO 13007KT 23/M01 A3018 RMK AO1 SLP216
T02281006





000
SAUS43 KABR 221902
MTR8D3
METAR K8D3 221856Z AUTO 13007KT 23/M01 A3018 RMK AO1 SLP216
T02281006





000
SAUS43 KABR 221804 COR
MTR8D3
METAR K8D3 221756Z AUTO 12006KT 22/M02 A3020 RMK AO1 SLP220
T02221017 10222 20072 53001





000
SAUS43 KABR 221804 COR
MTR8D3
METAR K8D3 221756Z AUTO 12006KT 22/M02 A3020 RMK AO1 SLP220
T02221017 10222 20072 53001





000
SAUS43 KABR 221803 COR
MTR8D3
METAR K8D3 221756Z AUTO 12006KT 22/M02 A3020 RMK AO1 SLP220
T02221017 10222 20072 53001





000
SAUS43 KABR 221803 COR
MTR8D3
METAR K8D3 221756Z AUTO 12006KT 22/M02 A3020 RMK AO1 SLP220
T02221017 10222 20072 53001





000
SAUS43 KABR 221704 COR
MTR8D3
METAR K8D3 221656Z AUTO 11007KT 21/M01 A3019 RMK AO1 SLP219
T02111006





000
SAUS43 KABR 221704 COR
MTR8D3
METAR K8D3 221656Z AUTO 11007KT 21/M01 A3019 RMK AO1 SLP219
T02111006





000
SAUS43 KABR 221702 COR
MTR8D3
METAR K8D3 221656Z AUTO 11007KT 21/M01 A3019 RMK AO1 SLP219
T02111006





000
SAUS43 KABR 221605 COR
MTR8D3
METAR K8D3 221556Z AUTO 16005KT 20/01 A3019 RMK AO1 SLP217 T02000011





000
SAUS43 KABR 221605 COR
MTR8D3
METAR K8D3 221556Z AUTO 16005KT 20/01 A3019 RMK AO1 SLP217 T02000011





000
SAUS43 KABR 221604 COR
MTR8D3
METAR K8D3 221556Z AUTO 16005KT 20/01 A3019 RMK AO1 SLP217 T02000011





000
SAUS43 KABR 221604 COR
MTR8D3
METAR K8D3 221556Z AUTO 16005KT 20/01 A3019 RMK AO1 SLP217 T02000011





000
SAUS43 KABR 221603
MTR8D3
METAR K8D3 221556Z AUTO 16005KT 20/01 A3019 RMK AO1 SLP217 T02000011





000
SAUS43 KABR 221504 COR
MTR8D3
METAR K8D3 221456Z AUTO 00000KT 18/03 A3019 RMK AO1 SLP216 T01830033
53005





000
SAUS43 KABR 221503 COR
MTR8D3
METAR K8D3 221456Z AUTO 00000KT 18/03 A3019 RMK AO1 SLP216 T01830033
53005





000
SAUS43 KABR 221402
MTR8D3
METAR K8D3 221356Z AUTO 00000KT 17/04 A3018 RMK AO1 SLP215 T01670044





000
SAUS43 KABR 221304 COR
MTR8D3
METAR K8D3 221256Z AUTO 00000KT 13/07 A3018 RMK AO1 SLP213 T01330067





000
SAUS43 KABR 221303 COR
MTR8D3
METAR K8D3 221256Z AUTO 00000KT 13/07 A3018 RMK AO1 SLP213 T01330067





000
SAUS43 KABR 221204 COR
MTR8D3
METAR K8D3 221156Z AUTO 24003KT 07/04 A3018 RMK AO1 SLP215 T00720044
10083 20044 50006





000
SAUS43 KABR 221204 COR
MTR8D3
METAR K8D3 221156Z AUTO 24003KT 07/04 A3018 RMK AO1 SLP215 T00720044
10083 20044 50006





000
SAUS43 KABR 221203 COR
MTR8D3
METAR K8D3 221156Z AUTO 24003KT 07/04 A3018 RMK AO1 SLP215 T00720044
10083 20044 50006





000
SAUS43 KABR 221203 COR
MTR8D3
METAR K8D3 221156Z AUTO 24003KT 07/04 A3018 RMK AO1 SLP215 T00720044
10083 20044 50006





000
SAUS43 KABR 221102
MTR8D3
METAR K8D3 221056Z AUTO 25003KT 06/03 A3018 RMK AO1 SLP215 T00560033





000
SAUS43 KABR 221102
MTR8D3
METAR K8D3 221056Z AUTO 25003KT 06/03 A3018 RMK AO1 SLP215 T00560033





000
SAUS43 KABR 221002
MTR8D3
METAR K8D3 220956Z AUTO 26003KT 05/03 A3016 RMK AO1 SLP211 T00500028





000
SAUS43 KABR 220902
MTR8D3
METAR K8D3 220856Z AUTO 00000KT 06/03 A3016 RMK AO1 SLP208 T00610033
51004





000
SAUS43 KABR 220902
MTR8D3
METAR K8D3 220856Z AUTO 00000KT 06/03 A3016 RMK AO1 SLP208 T00610033
51004





000
SAUS43 KABR 220802
MTR8D3
METAR K8D3 220756Z AUTO 00000KT 06/03 A3015 RMK AO1 SLP207 T00610033





000
SAUS43 KABR 220802
MTR8D3
METAR K8D3 220756Z AUTO 00000KT 06/03 A3015 RMK AO1 SLP207 T00610033





000
SAUS43 KABR 220704 COR
MTR8D3
METAR K8D3 220656Z AUTO 35004KT 07/03 A3015 RMK AO1 SLP206 T00670033





000
SAUS43 KABR 220704 COR
MTR8D3
METAR K8D3 220656Z AUTO 35004KT 07/03 A3015 RMK AO1 SLP206 T00670033





000
SAUS43 KABR 220703 COR
MTR8D3
METAR K8D3 220656Z AUTO 35004KT 07/03 A3015 RMK AO1 SLP206 T00670033





000
SAUS43 KABR 220703 COR
MTR8D3
METAR K8D3 220656Z AUTO 35004KT 07/03 A3015 RMK AO1 SLP206 T00670033





000
SAUS43 KABR 220702
MTR8D3
METAR K8D3 220656Z AUTO 35004KT 07/03 A3015 RMK AO1 SLP206 T00670033





000
SAUS43 KABR 220702
MTR8D3
METAR K8D3 220656Z AUTO 35004KT 07/03 A3015 RMK AO1 SLP206 T00670033





000
SAUS43 KABR 220602
MTR8D3
METAR K8D3 220556Z AUTO 00000KT 08/03 A3014 RMK AO1 SLP204 T00830033
10217 20078 402330078 52009





000
SAUS43 KABR 220602
MTR8D3
METAR K8D3 220556Z AUTO 00000KT 08/03 A3014 RMK AO1 SLP204 T00830033
10217 20078 402330078 52009





000
SAUS43 KABR 220502
MTR8D3
METAR K8D3 220456Z AUTO 26004KT 09/04 A3013 RMK AO1 SLP200 T00940039





000
SAUS43 KABR 220502
MTR8D3
METAR K8D3 220456Z AUTO 26004KT 09/04 A3013 RMK AO1 SLP200 T00940039





000
SAUS43 KABR 220402
MTR8D3
METAR K8D3 220356Z AUTO 27005KT 11/03 A3013 RMK AO1 SLP198 T01060033





000
SAUS43 KABR 220402
MTR8D3
METAR K8D3 220356Z AUTO 27005KT 11/03 A3013 RMK AO1 SLP198 T01060033





000
SAUS43 KABR 220302
MTR8D3
METAR K8D3 220256Z AUTO 00000KT 16/01 A3012 RMK AO1 SLP192 T01610006
53012





000
SAUS43 KABR 220302
MTR8D3
METAR K8D3 220256Z AUTO 00000KT 16/01 A3012 RMK AO1 SLP192 T01610006
53012





000
SAUS43 KABR 220202
MTR8D3
METAR K8D3 220156Z AUTO 07004KT 16/01 A3010 RMK AO1 SLP187 T01560006





000
SAUS43 KABR 220102
MTR8D3
METAR K8D3 220056Z AUTO 04011KT 20/M02 A3009 RMK AO1 SLP181
T02001022





000
SAUS43 KABR 220102
MTR8D3
METAR K8D3 220056Z AUTO 04011KT 20/M02 A3009 RMK AO1 SLP181
T02001022





000
SAUS43 KABR 220002
MTR8D3
METAR K8D3 212356Z AUTO 03013KT 22/M03 A3008 RMK AO1 SLP180
T02171028 10233 20200 56008





000
SAUS43 KABR 220002
MTR8D3
METAR K8D3 212356Z AUTO 03013KT 22/M03 A3008 RMK AO1 SLP180
T02171028 10233 20200 56008





000
SAUS43 KABR 212302
MTR8D3
METAR K8D3 212256Z AUTO 01012KT 23/M01 A3009 RMK AO1 SLP180
T02281011





000
SAUS43 KABR 212202
MTR8D3
METAR K8D3 212156Z AUTO 02013KT 23/M02 A3010 RMK AO1 SLP182
T02281022





000
SAUS43 KABR 212104 COR
MTR8D3
METAR K8D3 212056Z AUTO 01016G21KT 23/M04 A3011 RMK AO1 SLP185
T02281044 56008





000
SAUS43 KABR 212103 COR
MTR8D3
METAR K8D3 212056Z AUTO 01016G21KT 23/M04 A3011 RMK AO1 SLP185
T02281044 56008





000
SAUS43 KABR 212004 COR
MTR8D3
METAR K8D3 211956Z AUTO 36012G21KT 22/M03 A3011 RMK AO1 SLP187
T02221033





000
SAUS43 KABR 212003 COR
MTR8D3
METAR K8D3 211956Z AUTO 36012G21KT 22/M03 A3011 RMK AO1 SLP187
T02221033





000
SAUS43 KABR 212003 COR
MTR8D3
METAR K8D3 211956Z AUTO 36012G21KT 22/M03 A3011 RMK AO1 SLP187
T02221033





000
SAUS43 KABR 211902
MTR8D3
METAR K8D3 211856Z AUTO 02011G18KT 21/M01 A3012 RMK AO1 SLP190
T02111011





000
SAUS43 KABR 211902
MTR8D3
METAR K8D3 211856Z AUTO 02011G18KT 21/M01 A3012 RMK AO1 SLP190
T02111011





000
SAUS43 KABR 211802
MTR8D3
METAR K8D3 211756Z AUTO 35014G18KT 21/01 A3013 RMK AO1 SLP195
T02060006 10206 20106 58001





000
SAUS43 KABR 211802
MTR8D3
METAR K8D3 211756Z AUTO 35014G18KT 21/01 A3013 RMK AO1 SLP195
T02060006 10206 20106 58001





000
SAUS43 KABR 211702
MTR8D3
METAR K8D3 211656Z AUTO 35013G20KT 19/01 A3013 RMK AO1 SLP196
T01940011





000
SAUS43 KABR 211702
MTR8D3
METAR K8D3 211656Z AUTO 35013G20KT 19/01 A3013 RMK AO1 SLP196
T01940011





000
SAUS43 KABR 211602
MTR8D3
METAR K8D3 211556Z AUTO 35010KT 18/02 A3014 RMK AO1 SLP199 T01780022





000
SAUS43 KABR 211502
MTR8D3
METAR K8D3 211456Z AUTO 01011KT 16/02 A3014 RMK AO1 SLP201 T01610022
51008





000
SAUS43 KABR 211502
MTR8D3
METAR K8D3 211456Z AUTO 01011KT 16/02 A3014 RMK AO1 SLP201 T01610022
51008





000
SAUS43 KABR 211402
MTR8D3
METAR K8D3 211356Z AUTO 35013KT 14/04 A3013 RMK AO1 SLP200 T01440039





000
SAUS43 KABR 211302
MTR8D3
METAR K8D3 211256Z AUTO 34015KT 13/03 A3012 RMK AO1 SLP196 T01280033





000
SAUS43 KABR 211202
MTR8D3
METAR K8D3 211156Z AUTO 33010KT 11/03 A3011 RMK AO1 SLP192 T01060028
10139 20106 53015





000
SAUS43 KABR 211202
MTR8D3
METAR K8D3 211156Z AUTO 33010KT 11/03 A3011 RMK AO1 SLP192 T01060028
10139 20106 53015





000
SAUS43 KABR 211104 COR
MTR8D3
METAR K8D3 211056Z AUTO 32015KT 11/02 A3009 RMK AO1 SLP184 T01110017





000
SAUS43 KABR 211104 COR
MTR8D3
METAR K8D3 211056Z AUTO 32015KT 11/02 A3009 RMK AO1 SLP184 T01110017





000
SAUS43 KABR 211103 COR
MTR8D3
METAR K8D3 211056Z AUTO 32015KT 11/02 A3009 RMK AO1 SLP184 T01110017





000
SAUS43 KABR 211103 COR
MTR8D3
METAR K8D3 211056Z AUTO 32015KT 11/02 A3009 RMK AO1 SLP184 T01110017





000
SAUS43 KABR 211002
MTR8D3
METAR K8D3 210956Z AUTO 32015KT 12/01 A3008 RMK AO1 PK WND
31028/0902 SLP177 T01220011





000
SAUS43 KABR 211002
MTR8D3
METAR K8D3 210956Z AUTO 32015KT 12/01 A3008 RMK AO1 PK WND
31028/0902 SLP177 T01220011





000
SAUS43 KABR 210902
MTR8D3
METAR K8D3 210856Z AUTO 31020KT 13/01 A3007 RMK AO1 PK WND
30028/0844 SLP175 T01330006 55005





000
SAUS43 KABR 210802
MTR8D3
METAR K8D3 210756Z AUTO 30017G24KT 13/01 A3007 RMK AO1 PK WND
30026/0720 SLP175 T01330011





000
SAUS43 KABR 210702
MTR8D3
METAR K8D3 210656Z AUTO 30019KT 14/01 A3007 RMK AO1 SLP178 T01390011





000
SAUS43 KABR 210602
MTR8D3
METAR K8D3 210556Z AUTO 29015KT 13/02 A3008 RMK AO1 SLP182 T01330017
10189 20122 402060000 58005





000
SAUS43 KABR 210602
MTR8D3
METAR K8D3 210556Z AUTO 29015KT 13/02 A3008 RMK AO1 SLP182 T01330017
10189 20122 402060000 58005





000
SAUS43 KABR 210502
MTR8D3
METAR K8D3 210456Z AUTO 28011KT 14/02 A3009 RMK AO1 SLP186 T01390017





000
SAUS43 KABR 210502
MTR8D3
METAR K8D3 210456Z AUTO 28011KT 14/02 A3009 RMK AO1 SLP186 T01390017





000
SAUS43 KABR 210402
MTR8D3
METAR K8D3 210356Z AUTO 28009KT 13/03 A3010 RMK AO1 SLP190 T01280028





000
SAUS43 KABR 210402
MTR8D3
METAR K8D3 210356Z AUTO 28009KT 13/03 A3010 RMK AO1 SLP190 T01280028





000
SAUS43 KABR 210302
MTR8D3
METAR K8D3 210256Z AUTO 27007KT 12/03 A3010 RMK AO1 SLP192 T01220033
55002





000
SAUS43 KABR 210202
MTR8D3
METAR K8D3 210156Z AUTO 28006KT 14/02 A3009 RMK AO1 SLP189 T01440022





000
SAUS43 KABR 210202
MTR8D3
METAR K8D3 210156Z AUTO 28006KT 14/02 A3009 RMK AO1 SLP189 T01440022





000
SAUS43 KABR 210102
MTR8D3
METAR K8D3 210056Z AUTO 34008KT 18/01 A3010 RMK AO1 SLP190 T01780011





000
SAUS43 KABR 210102
MTR8D3
METAR K8D3 210056Z AUTO 34008KT 18/01 A3010 RMK AO1 SLP190 T01780011





000
SAUS43 KABR 210002
MTR8D3
METAR K8D3 202356Z AUTO 35009KT 19/01 A3010 RMK AO1 SLP195 T01890006
10206 20156 56019





000
SAUS43 KABR 210002
MTR8D3
METAR K8D3 202356Z AUTO 35009KT 19/01 A3010 RMK AO1 SLP195 T01890006
10206 20156 56019





000
SAUS43 KABR 202302
MTR8D3
METAR K8D3 202256Z AUTO 34011KT 18/01 A3012 RMK AO1 SLP204 T01830006





000
SAUS43 KABR 202202
MTR8D3
METAR K8D3 202156Z AUTO 34011KT 21/01 A3014 RMK AO1 SLP206 T02060006





000
SAUS43 KABR 202202
MTR8D3
METAR K8D3 202156Z AUTO 34011KT 21/01 A3014 RMK AO1 SLP206 T02060006





000
SAUS43 KABR 202102
MTR8D3
METAR K8D3 202056Z AUTO 31008G18KT 19/00 A3016 RMK AO1 SLP215
T01890000 58023





000
SAUS43 KABR 202004 COR
MTR8D3
METAR K8D3 201956Z AUTO 34013G18KT 18/00 A3019 RMK AO1 SLP224
T01830000





000
SAUS43 KABR 202003 COR
MTR8D3
METAR K8D3 201956Z AUTO 34013G18KT 18/00 A3019 RMK AO1 SLP224
T01830000





000
SAUS43 KABR 201904 COR
MTR8D3
METAR K8D3 201856Z AUTO 35011KT 17/M01 A3021 RMK AO1 SLP234
T01721006





000
SAUS43 KABR 201904 COR
MTR8D3
METAR K8D3 201856Z AUTO 35011KT 17/M01 A3021 RMK AO1 SLP234
T01721006





000
SAUS43 KABR 201903 COR
MTR8D3
METAR K8D3 201856Z AUTO 35011KT 17/M01 A3021 RMK AO1 SLP234
T01721006





000
SAUS43 KABR 201903 COR
MTR8D3
METAR K8D3 201856Z AUTO 35011KT 17/M01 A3021 RMK AO1 SLP234
T01721006





000
SAUS43 KABR 201804 COR
MTR8D3
METAR K8D3 201756Z AUTO VRB03KT 16/00 A3023 RMK AO1 SLP240 T01610000
10161 20028 57013





000
SAUS43 KABR 201804 COR
MTR8D3
METAR K8D3 201756Z AUTO VRB03KT 16/00 A3023 RMK AO1 SLP240 T01610000
10161 20028 57013





000
SAUS43 KABR 201803 COR
MTR8D3
METAR K8D3 201756Z AUTO VRB03KT 16/00 A3023 RMK AO1 SLP240 T01610000
10161 20028 57013





000
SAUS43 KABR 201803 COR
MTR8D3
METAR K8D3 201756Z AUTO VRB03KT 16/00 A3023 RMK AO1 SLP240 T01610000
10161 20028 57013





000
SAUS43 KABR 201802 COR
MTR8D3
METAR K8D3 201756Z AUTO VRB03KT 16/00 A3023 RMK AO1 SLP240 T01610000
10161 20028 57013





000
SAUS43 KABR 201802 COR
MTR8D3
METAR K8D3 201756Z AUTO VRB03KT 16/00 A3023 RMK AO1 SLP240 T01610000
10161 20028 57013





000
SAUS43 KABR 201702
MTR8D3
METAR K8D3 201656Z AUTO 30007KT 14/M01 A3025 RMK AO1 SLP248
T01391006





000
SAUS43 KABR 201702
MTR8D3
METAR K8D3 201656Z AUTO 30007KT 14/M01 A3025 RMK AO1 SLP248
T01391006





000
SAUS43 KABR 201602
MTR8D3
METAR K8D3 201556Z AUTO 34004KT 13/M01 A3026 RMK AO1 SLP249
T01331006





000
SAUS43 KABR 201602
MTR8D3
METAR K8D3 201556Z AUTO 34004KT 13/M01 A3026 RMK AO1 SLP249
T01331006





000
SAUS43 KABR 201504 COR
MTR8D3
METAR K8D3 201456Z AUTO 31004KT 11/01 A3027 RMK AO1 SLP256 T01110011
50001





000
SAUS43 KABR 201503 COR
MTR8D3
METAR K8D3 201456Z AUTO 31004KT 11/01 A3027 RMK AO1 SLP256 T01110011
50001





000
SAUS43 KABR 201502 COR
MTR8D3
METAR K8D3 201456Z AUTO 31004KT 11/01 A3027 RMK AO1 SLP256 T01110011
50001





000
SAUS43 KABR 201402
MTR8D3
METAR K8D3 201356Z AUTO 25004KT 10/02 A3028 RMK AO1 SLP258 T01000022





000
SAUS43 KABR 201304 COR
MTR8D3
METAR K8D3 201256Z AUTO 28004KT 08/03 A3027 RMK AO1 SLP255 T00830033





000
SAUS43 KABR 201303 COR
MTR8D3
METAR K8D3 201256Z AUTO 28004KT 08/03 A3027 RMK AO1 SLP255 T00830033





000
SAUS43 KABR 201302
MTR8D3
METAR K8D3 201256Z AUTO 28004KT 08/03 A3027 RMK AO1 SLP255 T00830033





000
SAUS43 KABR 201202
MTR8D3
METAR K8D3 201156Z AUTO 00000KT 03/01 A3027 RMK AO1 SLP258 T00280011
10044 20000 53005





000
SAUS43 KABR 201202
MTR8D3
METAR K8D3 201156Z AUTO 00000KT 03/01 A3027 RMK AO1 SLP258 T00280011
10044 20000 53005





000
SAUS43 KABR 201104 COR
MTR8D3
METAR K8D3 201056Z AUTO 28003KT 01/M01 A3026 RMK AO1 SLP256
T00061006





000
SAUS43 KABR 201104 COR
MTR8D3
METAR K8D3 201056Z AUTO 28003KT 01/M01 A3026 RMK AO1 SLP256
T00061006





000
SAUS43 KABR 201103 COR
MTR8D3
METAR K8D3 201056Z AUTO 28003KT 01/M01 A3026 RMK AO1 SLP256
T00061006





000
SAUS43 KABR 201103 COR
MTR8D3
METAR K8D3 201056Z AUTO 28003KT 01/M01 A3026 RMK AO1 SLP256
T00061006





    US Dept of Commerce
    National Oceanic and Atmospheric Administration
    National Weather Service
    1325 East West Highway
    Silver Spring, MD 20910
    Page Author: NWS Internet Services Team
Disclaimer
Information Quality
Credits
Glossary
Privacy Policy
Freedom of Information Act (FOIA)
About Us
Career Opportunities